Orbital Elements at Epoch 2459000.5 (2020-May-31.0) TDB
Reference: JPL 17 (heliocentric ecliptic J2000)
Element | Value | Uncertainty (1-sigma) | Units |
e | .231162936100129 | 3.8908e-08 | |
a | 2.595296997437738 | 1.6734e-08 | au |
q | 1.995360523458181 | 1.0291e-07 | au |
i | 4.032287856296688 | 7.1925e-06 | deg |
node | 334.08654178787 | 9.3705e-05 | deg |
peri | 128.7825724110899 | 9.733e-05 | deg |
M | 158.1603832380669 | 2.8658e-05 | deg |
tp | 2458329.574604003630 (2018-Jul-30.07460400) | 0.00011634 | TDB |
period | 1527.140600027073 4.18 | 1.477e-05 4.044e-08 | d yr |
n | .2357346795662547 | 2.2799e-09 | deg/d |
Q | 3.195233471417295 | 2.0602e-08 | au |
|
| | Orbit Determination Parameters
Additional Information
|